This demonstration page uses our WeatherBlox Daily Observations layout. Learn more.

Left ArrowRight Arrow

31.31129, -92.44514

Hourly Observations for December 6, 2015

Temp ( °F °C ) Dew Point ( °F °C ) Humidity (%) Winds ( mph kmh ) Pressure ( in mb ) Visibility ( mi km ) Precip ( " mm )
12:53 am 00:53 Clear 41 5 39 3.9 93 93 Calm 30.42 1030 9 14 0.00 0.00
1:53 am 01:53 Clear 40 4.4 39 3.9 97 97 NW 3 6 30.42 1030 8 13 0.00 0.00
2:53 am 02:53 Clear 41 5 40 4.4 96 96 WNW 3 6 30.43 1030 9 14 0.00 0.00
3:53 am 03:53 Mostly Cloudy 41 5 40 4.4 96 96 NW 3 6 30.43 1031 9 14 0.00 0.00
4:53 am 04:53 Mostly Clear 42 5.6 40 4.4 92 92 Calm 30.42 1030 9 14 0.00 0.00
5:53 am 05:53 Clear 40 4.4 39 3.9 97 97 WNW 3 6 30.42 1030 7 11 0.00 0.00
6:53 am 06:53 Clear 39 3.9 39 3.9 100 100 Calm 30.42 1030 8 13 0.00 0.00
7:53 am 07:53 Sunny with Mist and Fog 42 5.6 42 5.6 100 100 Calm 30.42 1030 6 10 0.00 0.00
8:53 am 08:53 Sunny 46 7.8 43 6.1 89 89 WNW 3 6 30.44 1031 9 14 0.00 0.00
9:53 am 09:53 Sunny 54 12.2 48 8.9 80 80 Calm 30.44 1031 10 16 0.00 0.00
10:53 am 10:53 Sunny 60 15.6 51 10.6 72 72 WSW 5 7 30.43 1031 10 16 0.00 0.00
11:53 am 11:53 Sunny 64 17.8 50 10 60 60 W 5 7 30.40 1030 10 16 0.00 0.00
12:53 pm 12:53 Sunny 66 18.9 50 10 56 56 WSW 6 9 30.36 1028 10 16 0.00 0.00
1:53 pm 13:53 Sunny 67 19.4 49 9.4 53 53 SSW 3 6 30.32 1027 10 16 0.00 0.00
2:53 pm 14:53 Sunny 67 19.4 46 7.8 47 47 Calm 30.30 1026 10 16 0.00 0.00
3:53 pm 15:53 Sunny 67 19.4 41 5 39 39 WNW 3 6 30.30 1026 10 16 0.00 0.00
4:53 pm 16:53 Sunny 63 17.2 46 7.8 54 54 WNW 6 9 30.30 1026 10 16 0.00 0.00
5:53 pm 17:53 Clear 57 13.9 44 6.7 62 62 Calm 30.30 1026 10 16 0.00 0.00
6:53 pm 18:53 Clear 53 11.7 45 7.2 74 74 Calm 30.31 1027 10 16 0.00 0.00
7:53 pm 19:53 Clear 50 10 45 7.2 83 83 Calm 30.32 1027 9 14 0.00 0.00
8:53 pm 20:53 Clear 47 8.3 44 6.7 90 90 WNW 3 6 30.33 1027 9 14 0.00 0.00
9:53 pm 21:53 Clear 47 8.3 43 6.1 86 86 Calm 30.33 1027 10 16 0.00 0.00
10:53 pm 22:53 Clear 45 7.2 43 6.1 93 93 Calm 30.33 1027 10 16 0.00 0.00
11:53 pm 23:53 Clear 44 6.7 42 5.6 93 93 WNW 3 6 30.32 1027 9 14 0.00 0.00

Powered by AerisWeather